Time,TemperatureF,DewpointF,PressureIn,WindDirection,WindDirectionDegrees,WindSpeedMPH,WindSpeedGustMPH,Humidity,HourlyPrecipIn,Conditions,Clouds,dailyrainin,SoftwareType,DateUTC
2013-01-02 07:33:00,31.0,26.0,30.14,North,5,0.0,0.0,80,0.00,,,0.00,,2013-01-02 15:33:00,
2013-01-02 07:43:00,31.0,26.0,30.14,North,5,0.0,0.0,80,0.00,,,0.00,,2013-01-02 15:43:00,
2013-01-02 07:53:00,30.0,24.0,30.15,North,5,0.0,0.0,79,0.00,,,0.00,,2013-01-02 15:53:00,
2013-01-02 08:02:00,30.0,25.0,30.16,North,5,0.0,1.0,81,0.00,,,0.00,,2013-01-02 16:02:00,
2013-01-02 08:12:00,30.0,25.0,30.16,North,5,0.0,1.0,81,0.00,,,0.00,,2013-01-02 16:12:00,
2013-01-02 08:22:00,29.0,25.0,30.16,NE,48,0.0,3.0,84,0.00,,,0.00,,2013-01-02 16:22:00,
2013-01-02 08:33:00,29.0,25.0,30.16,North,9,0.0,1.0,84,0.00,,,0.00,,2013-01-02 16:33:00,
2013-01-02 08:42:00,29.0,25.0,30.16,North,9,0.0,1.0,84,0.00,,,0.00,,2013-01-02 16:42:00,
2013-01-02 08:53:00,30.0,26.0,30.17,NNE,12,0.0,1.0,84,0.00,,,0.00,,2013-01-02 16:53:00,
2013-01-02 09:03:00,31.0,27.0,30.17,NNE,20,1.0,2.0,85,0.00,,,0.00,,2013-01-02 17:03:00,
2013-01-02 09:12:00,31.0,27.0,30.17,NNE,20,1.0,2.0,85,0.00,,,0.00,,2013-01-02 17:12:00,
2013-01-02 09:22:00,33.0,29.0,30.17,NNE,20,0.0,1.0,85,0.00,,,0.00,,2013-01-02 17:22:00,
2013-01-02 09:33:00,35.0,31.0,30.17,NNE,21,1.0,2.0,84,0.00,,,0.00,,2013-01-02 17:33:00,
2013-01-02 09:43:00,35.0,31.0,30.17,NNE,21,1.0,2.0,84,0.00,,,0.00,,2013-01-02 17:43:00,
2013-01-02 09:53:00,39.0,33.0,30.18,NNE,21,1.0,1.0,80,0.00,,,0.00,,2013-01-02 17:53:00,
2013-01-02 10:02:00,41.0,33.0,30.19,NE,38,0.0,2.0,73,0.00,,,0.00,,2013-01-02 18:02:00,
2013-01-02 10:12:00,41.0,33.0,30.19,NE,38,0.0,2.0,73,0.00,,,0.00,,2013-01-02 18:12:00,
2013-01-02 10:22:00,44.0,35.0,30.19,ENE,73,1.0,2.0,70,0.00,,,0.00,,2013-01-02 18:22:00,
2013-01-02 10:33:00,45.0,34.0,30.19,East,84,1.0,3.0,64,0.00,,,0.00,,2013-01-02 18:33:00,
2013-01-02 10:42:00,45.0,34.0,30.19,East,84,1.0,3.0,64,0.00,,,0.00,,2013-01-02 18:42:00,
2013-01-02 10:52:00,47.0,33.0,30.19,East,88,1.0,3.0,58,0.00,,,0.00,,2013-01-02 18:52:00,
2013-01-02 11:02:00,48.0,35.0,30.19,South,175,0.0,2.0,60,0.00,,,0.00,,2013-01-02 19:02:00,
2013-01-02 11:12:00,48.0,35.0,30.19,South,175,0.0,2.0,60,0.00,,,0.00,,2013-01-02 19:12:00,
2013-01-02 11:22:00,51.0,35.0,30.18,East,88,1.0,2.0,54,0.00,,,0.00,,2013-01-02 19:22:00,
2013-01-02 11:32:00,52.0,37.0,30.17,East,88,0.0,3.0,56,0.00,,,0.00,,2013-01-02 19:32:00,
2013-01-02 11:42:00,52.0,37.0,30.17,East,88,0.0,3.0,56,0.00,,,0.00,,2013-01-02 19:42:00,
2013-01-02 11:52:00,53.0,33.0,30.17,East,88,1.0,3.0,47,0.00,,,0.00,,2013-01-02 19:52:00,
2013-01-02 12:02:00,54.0,36.0,30.16,SSE,160,1.0,2.0,50,0.00,,,0.00,,2013-01-02 20:02:00,
2013-01-02 12:12:00,54.0,36.0,30.16,SSE,160,1.0,2.0,50,0.00,,,0.00,,2013-01-02 20:12:00,
2013-01-02 12:22:00,54.0,36.0,30.16,SSE,160,1.0,2.0,50,0.00,,,0.00,,2013-01-02 20:22:00,
2013-01-02 12:32:00,56.0,37.0,30.14,ESE,115,2.0,3.0,48,0.00,,,0.00,,2013-01-02 20:32:00,
2013-01-02 12:42:00,56.0,37.0,30.14,ESE,115,2.0,3.0,48,0.00,,,0.00,,2013-01-02 20:42:00,
2013-01-02 12:53:00,58.0,37.0,30.14,ESE,103,2.0,4.0,46,0.00,,,0.00,,2013-01-02 20:53:00,
2013-01-02 13:02:00,59.0,37.0,30.13,SE,127,2.0,5.0,44,0.00,,,0.00,,2013-01-02 21:02:00,
2013-01-02 13:12:00,59.0,37.0,30.13,SE,127,2.0,5.0,44,0.00,,,0.00,,2013-01-02 21:12:00,
2013-01-02 13:22:00,59.0,37.0,30.13,East,86,2.0,3.0,43,0.00,,,0.00,,2013-01-02 21:22:00,
2013-01-02 13:32:00,58.0,36.0,30.12,NE,51,2.0,5.0,44,0.00,,,0.00,,2013-01-02 21:32:00,
2013-01-02 13:42:00,58.0,36.0,30.12,NE,51,2.0,5.0,44,0.00,,,0.00,,2013-01-02 21:42:00,
2013-01-02 13:52:00,58.0,34.0,30.12,ESE,108,4.0,7.0,41,0.00,,,0.00,,2013-01-02 21:52:00,
2013-01-02 14:02:00,57.0,36.0,30.11,East,85,2.0,7.0,46,0.00,,,0.00,,2013-01-02 22:02:00,
2013-01-02 14:12:00,57.0,36.0,30.11,East,85,2.0,7.0,46,0.00,,,0.00,,2013-01-02 22:12:00,
2013-01-02 14:22:00,57.0,36.0,30.11,East,93,2.0,6.0,46,0.00,,,0.00,,2013-01-02 22:22:00,
2013-01-02 14:32:00,57.0,36.0,30.11,ESE,118,3.0,7.0,45,0.00,,,0.00,,2013-01-02 22:32:00,
2013-01-02 14:42:00,57.0,36.0,30.11,ESE,118,3.0,7.0,45,0.00,,,0.00,,2013-01-02 22:42:00,
2013-01-02 14:52:00,58.0,38.0,30.11,East,84,2.0,5.0,48,0.00,,,0.00,,2013-01-02 22:52:00,
2013-01-02 15:02:00,57.0,38.0,30.10,NE,44,2.0,7.0,48,0.00,,,0.00,,2013-01-02 23:02:00,
2013-01-02 15:12:00,58.0,40.0,30.10,ESE,109,1.0,3.0,51,0.00,,,0.00,,2013-01-02 23:12:00,
2013-01-02 15:22:00,58.0,40.0,30.10,ESE,109,1.0,3.0,51,0.00,,,0.00,,2013-01-02 23:22:00,
2013-01-02 15:32:00,58.0,40.0,30.10,ESE,110,1.0,2.0,51,0.00,,,0.00,,2013-01-02 23:32:00,
2013-01-02 15:42:00,58.0,40.0,30.10,ESE,110,1.0,2.0,51,0.00,,,0.00,,2013-01-02 23:42:00,
2013-01-02 15:52:00,57.0,40.0,30.10,SE,132,1.0,2.0,53,0.00,,,0.00,,2013-01-02 23:52:00,
2013-01-02 16:02:00,57.0,40.0,30.10,SE,132,1.0,2.0,53,0.00,,,0.00,,2013-01-03 00:02:00,
2013-01-02 16:12:00,57.0,40.0,30.10,SE,132,1.0,2.0,53,0.00,,,0.00,,2013-01-03 00:12:00,
2013-01-02 16:22:00,51.0,38.0,30.11,East,85,0.0,2.0,60,0.00,,,0.00,,2013-01-03 00:22:00,
2013-01-02 16:37:00,49.0,38.0,30.11,East,87,0.0,1.0,65,0.00,,,0.00,,2013-01-03 00:37:00,
2013-01-02 16:52:00,48.0,38.0,30.11,East,87,0.0,0.0,68,0.00,,,0.00,,2013-01-03 00:52:00,
2013-01-02 17:02:00,46.0,38.0,30.10,ENE,73,0.0,2.0,73,0.00,,,0.00,,2013-01-03 01:02:00,
2013-01-02 17:12:00,46.0,38.0,30.10,ENE,73,0.0,2.0,73,0.00,,,0.00,,2013-01-03 01:12:00,
2013-01-02 17:22:00,45.0,37.0,30.10,ENE,73,0.0,0.0,74,0.00,,,0.00,,2013-01-03 01:22:00,
2013-01-02 17:32:00,43.0,37.0,30.10,ENE,73,0.0,2.0,78,0.00,,,0.00,,2013-01-03 01:32:00,
2013-01-02 17:52:00,42.0,36.0,30.10,ENE,73,0.0,0.0,80,0.00,,,0.00,,2013-01-03 01:52:00,
2013-01-02 18:02:00,42.0,36.0,30.10,ENE,73,0.0,0.0,80,0.00,,,0.00,,2013-01-03 02:02:00,
2013-01-02 18:12:00,42.0,36.0,30.10,ENE,73,0.0,0.0,80,0.00,,,0.00,,2013-01-03 02:12:00,
2013-01-02 18:22:00,39.0,34.0,30.11,ENE,73,0.0,1.0,82,0.00,,,0.00,,2013-01-03 02:22:00,
2013-01-02 18:33:00,38.0,34.0,30.11,ENE,73,0.0,2.0,84,0.00,,,0.00,,2013-01-03 02:33:00,
2013-01-02 18:42:00,38.0,34.0,30.11,ENE,73,0.0,2.0,84,0.00,,,0.00,,2013-01-03 02:42:00,
2013-01-02 18:52:00,38.0,34.0,30.11,ENE,73,0.0,2.0,84,0.00,,,0.00,,2013-01-03 02:52:00,
2013-01-02 19:02:00,37.0,33.0,30.11,ENE,57,0.0,1.0,84,0.00,,,0.00,,2013-01-03 03:02:00,
2013-01-02 19:12:00,36.0,32.0,30.11,ENE,57,0.0,1.0,86,0.00,,,0.00,,2013-01-03 03:12:00,
2013-01-02 19:22:00,36.0,32.0,30.11,ENE,57,0.0,1.0,86,0.00,,,0.00,,2013-01-03 03:22:00,
2013-01-02 19:46:00,36.0,33.0,30.11,ENE,57,0.0,1.0,87,0.00,,,0.00,,2013-01-03 03:46:00,
2013-01-02 19:52:00,35.0,32.0,30.11,ENE,57,0.0,1.0,87,0.00,,,0.00,,2013-01-03 03:52:00,
2013-01-02 20:02:00,34.0,31.0,30.12,ENE,57,0.0,0.0,89,0.00,,,0.00,,2013-01-03 04:02:00,
2013-01-02 20:32:00,34.0,31.0,30.12,ENE,57,0.0,0.0,89,0.00,,,0.00,,2013-01-03 04:32:00,